Lubbock, TX

9:08 PM CST on December 08, 2019 (GMT -0600)
Lubbock International

Weather History for KLBB - November, 2019

Change the Weather History Date:

Saturday, November 16, 2019

  Actual Average Record
Temperature  
Mean Temperature 52 °F 50 °F  
Max Temperature 65 °F 63 °F 83 °F (1966)
Min Temperature 40 °F 36 °F 11 °F (1916)
Degree Days  
Heating Degree Days 12 16  
Month to date heating degree days 267 199  
Since 1 July heating degree days 562 381  
Cooling Degree Days 0 0  
Month to date cooling degree days 0 0  
Year to date cooling degree days 2160 1801  
Growing Degree Days 2 (Base 50)    
Moisture  
Dew Point 34 °F    
Average Humidity 53    
Maximum Humidity 70    
Minimum Humidity 34    
Precipitation  
Precipitation 0.00 in 0.02 in 1.25 in (2004)
Month to date precipitation 0.59 0.49  
Year to date precipitation 23.26 18.00  
Snow  
Snow 0.00 in 0.00 in 10.30 in (1980)
Month to date snowfall 0.0 0.4  
Since 1 July snowfall 0.1 0.4  
Since 1 September snowfall 0.1 0.4  
Snow Depth 0.00 in    
Sea Level Pressure  
Sea Level Pressure 30.00 in    
Wind  
Wind Speed 10 mph ()    
Max Wind Speed 18 mph    
Max Gust Speed 22 mph    
Visibility 10.0 miles    
Events      
T = Trace of Precipitation, MM = Missing Value Source: Averaged Metar Reports

Daily Weather History Graph

Daily Weather History Graph

Search for Another Location

Airport or City:

Astronomy

Nov. 16, 2019 Rise Set
Actual Time 7:19 AM CST 5:43 PM CST
Civil Twilight 6:53 AM CST 6:10 PM CST
Nautical Twilight 6:23 AM CST 6:40 PM CST
Astronomical Twilight 5:53 AM CST 7:10 PM CST
Moon 9:23 PM CST (11/16) 11:10 AM CST (11/16)
Length of Visible Light 11h 16m
Length of Day
10h 23m
Waning Gibbous, 82% of the Moon is Illuminated
Nov 16
Waning Gibbous
Nov 19
Last Quarter
Nov 26
New
Dec 4
First Quarter
Dec 11
Full

Hourly Weather History & Observations

Time (CST) Temp. Windchill Dew Point Humidity Pressure Visibility Wind Dir Wind Speed Gust Speed Precip Events Conditions
12:53 AM 48.0 °F - 28.9 °F 48% 30.10 in 10.0 mi SSW 13.8 mph - N/A   Mostly Cloudy
1:53 AM 46.9 °F - 28.9 °F 50% 30.09 in 10.0 mi SSW 15.0 mph - N/A   Mostly Cloudy
2:53 AM 45.0 °F 39.3 °F 30.0 °F 56% 30.08 in 10.0 mi SSW 11.5 mph - N/A   Mostly Cloudy
3:53 AM 45.0 °F 38.5 °F 30.9 °F 58% 30.07 in 10.0 mi SSW 13.8 mph - N/A   Mostly Cloudy
4:53 AM 43.0 °F 36.8 °F 30.9 °F 62% 30.07 in 10.0 mi SSW 11.5 mph - N/A   Mostly Cloudy
5:53 AM 41.0 °F 34.7 °F 30.9 °F 67% 30.08 in 10.0 mi SSW 10.4 mph - N/A   Scattered Clouds
6:53 AM 41.0 °F 35.2 °F 30.9 °F 67% 30.08 in 10.0 mi SSW 9.2 mph - N/A   Mostly Cloudy
7:53 AM 41.0 °F 35.2 °F 32.0 °F 70% 30.09 in 10.0 mi SSW 9.2 mph - N/A   Mostly Cloudy
8:53 AM 46.0 °F 40.6 °F 32.0 °F 58% 30.08 in 10.0 mi SSW 11.5 mph - N/A   Mostly Cloudy
9:53 AM 50.0 °F - 33.1 °F 52% 30.07 in 10.0 mi SSW 9.2 mph - N/A   Mostly Cloudy
10:53 AM 52.0 °F - 34.0 °F 50% 30.06 in 10.0 mi SSW 9.2 mph - N/A   Mostly Cloudy
11:53 AM 57.0 °F - 34.0 °F 42% 30.01 in 10.0 mi SSW 10.4 mph - N/A   Overcast
1:53 PM 63.0 °F - 35.1 °F 35% 29.92 in 10.0 mi SSW 10.4 mph - N/A   Mostly Cloudy
2:53 PM 63.0 °F - 34.0 °F 34% 29.91 in 10.0 mi SSW 13.8 mph - N/A   Mostly Cloudy
3:53 PM 63.0 °F - 34.0 °F 34% 29.90 in 10.0 mi South 17.3 mph - N/A   Mostly Cloudy
4:53 PM 62.1 °F - 36.0 °F 38% 29.89 in 10.0 mi South 13.8 mph - N/A   Mostly Cloudy
5:53 PM 59.0 °F - 36.0 °F 42% 29.91 in 10.0 mi South 11.5 mph - N/A   Mostly Cloudy
6:53 PM 54.0 °F - 36.0 °F 51% 29.93 in 10.0 mi South 10.4 mph - N/A   Mostly Cloudy
7:53 PM 54.0 °F - 36.0 °F 51% 29.92 in 10.0 mi South 10.4 mph - N/A   Mostly Cloudy
8:53 PM 52.0 °F - 37.0 °F 57% 29.92 in 10.0 mi South 10.4 mph - N/A   Scattered Clouds
9:53 PM 48.0 °F - 37.0 °F 66% 29.92 in 10.0 mi South 8.1 mph - N/A   Scattered Clouds
10:53 PM 52.0 °F - 39.0 °F 61% 29.91 in 10.0 mi SW 12.7 mph - N/A   Mostly Cloudy
11:53 PM 51.1 °F - 39.0 °F 63% 29.90 in 10.0 mi SW 9.2 mph - N/A   Overcast